Voltar ao catálogo

HAWK-2C

AtivoCiênciaSSO
NORAD 47502·PAYLOAD·🇺🇸 United States

Lançado Jan 24, 2021 de Cape Canaveral Space Force Station

Loading…

Próximas Passagens (próximas 24 horas)

TLE

AtualizadoSource: Space-Track

Época: Sep 14, 2026, 13:58 UTC

1 47502U 21006CT  26257.58217437  .00005046  00000-0  14792-3 0  9997
2 47502  97.2195 300.1299 0005267 229.4560 130.6226 15.35625431313210

Acompanhe HAWK-2C em tempo real com AllMySat

Download on the App Store